LFBELFBP

Guest
Details From LFBE - Bergerac Roumaniere
To LFBP - Pau Pyrenees
Flight Number -
Tags Decoded
Created
Modified
Stats Distance 95 nm / 177 km
Max Altitude 0 ft / 0 m
Waypoints 2
Social Downloads 1
Likes 0
Share VATSIM

Download

Looking for another format? Having issues loading an existing format? Contact us
Advertisement - Login to hide

Notes

Decoded

Route

LFBE LFBP

ID Type Via Altitude Latitude Longitude Leg Dist Tot Dist Heading (true) Name
O LFBE APT - 0 ft / 0 m 44.82527˚ 0.50495˚ - 0 nm - -
O LFBP APT - 0 ft / 0 m 43.38766˚ -0.43326˚ 95 nm 95 nm 205° / 205° -

Altitude Profile

Advertisement - Login to hide

LFBE

Details ICAO LFBE (EGC)
Name Bergerac Roumaniere
Region France
Timezone Europe/Paris (UTC+2.0)
Stats Elevation 171 ft / 52 m (AMSL)
Location 44.824525° 0.518776°
Runways 1
Magnetic Variation 0.345° E

METAR

LFBE 261800Z AUTO VRB02KT CAVOK 21/15 Q1012 TEMPO 4500 -SHRA BKN050TCU

Decode

TAF

TAF TAF LFBE 261100Z 2612/2712 14005KT 9999 SCT050 OVC080 TEMPO 2613/2618 34008KT -SHRA FEW060CB BKN070TCU PROB40 TEMPO 2613/2618 VRB20G30KT 3000 TSRA BKN010 OVC040CB PROB30 TEMPO 2613/2615 1200 TSRAGR BKN008 OVC025CB BECMG 2618/2620 VRB03KT PROB30 TEMPO 2618/2706 4500 -SHRA BKN050TCU PROB30 TEMPO 2706/2709 BKN010 BECMG 2709/2711 SCT030

Decode

Departure Runways

ID Width Length Bearing (true) Bearing (mag) Surface Threshold Offset Overrun Length
10 148 ft / 45 m 7,178 ft / 2,188 m 94.33° 93.99° Asphalt 687 ft / 209 m 0 ft / 0 m
28 148 ft / 45 m 7,178 ft / 2,188 m 274.35° 274.01° Asphalt 804 ft / 245 m 0 ft / 0 m

LFBP

Details ICAO LFBP (PUF)
Name Pau Pyrenees
Region France
Timezone Europe/Paris (UTC+2.0)
Stats Elevation 616 ft / 188 m (AMSL)
Location 43.381078° -0.420752°
Runways 1
Magnetic Variation 0.148° E

METAR

LFBP 261800Z AUTO VRB01KT 9000 TSRA FEW022/// BKN070/// BKN086/// ///CB 17/15 Q1013 TEMPO VRB15G40KT 2000 TSRAGR BKN010 BKN030CB

Decode

TAF

TAF LFBP 261700Z 2618/2718 10006KT 9999 BKN040 TEMPO 2618/2624 4000 SHRA BKN030TCU PROB40 TEMPO 2618/2621 VRB15G40KT 2000 TSRAGR BKN010 BKN030CB BECMG 2700/2703 VRB03KT BKN010 PROB30 TEMPO 2710/2718 30010KT 4000 SHRA BKN020TCU

Decode

Destination Runways

ID Width Length Bearing (true) Bearing (mag) Surface Threshold Offset Overrun Length
13 148 ft / 45 m 8,191 ft / 2,497 m 125.89° 125.74° Asphalt 0 ft / 0 m 0 ft / 0 m
31 148 ft / 45 m 8,191 ft / 2,497 m 305.90° 305.75° Asphalt 0 ft / 0 m 0 ft / 0 m

Approach Navaids

Runway Type Ident Frequency Range Bearing (true) Bearing (mag) Slope Elevation
31 Localiser PU 110.10 MHz 18 nm / 33 km 305.89° 305.74° - 576 ft / 176 m (AMSL)
31 Glidescope PU 110.10 MHz 10 nm / 19 km 305.90° 305.75° 3.00° 676 ft / 206 m (AMSL)
31 DME PU 110.10 MHz 18 nm / 33 km - - - 608 ft / 185 m (AMSL)

Popular Alternatives